Regional Weather Roundup
Issued by NWS Newport/Morehead, NC

Current Version | Previous Version | Text Only | Print | Product List | Glossary On
Versions: 1 2 3 4 5 6 7 8 9 10 11 12 13 14 15 16 17 18 19 20 21 22 23 24 25 26 27 28 29 30 31 32 33 34 35 36 37 38 39 40 41 42 43 44 45 46 47 48 49 50
000
ASUS42 KMHX 050312
RWRMHX
WEATHER ROUNDUP FOR EASTERN NORTH CAROLINA
NATIONAL WEATHER SERVICE NEWPORT/MOREHEAD CITY NC
1000 PM EST WED MAR 04 2015

NOTE: "FAIR" INDICATES FEW OR NO CLOUDS BELOW 12,000 FEET
WITH NO SIGNIFICANT WEATHER AND/OR OBSTRUCTIONS TO VISIBILITY

NCZ015>017-031-032-045>047-102-103-050400-
NORTH COAST

CITY           SKY/WX    TMP DP  RH WIND       PRES   REMARKS
EDENTON        CLEAR     63  57  82 S13       29.92R
ELIZABETH CITY CLEAR     63  57  81 S17       29.90R
KITTY HAWK     NOT AVBL
MANTEO         PTCLDY    59  55  88 SW17      29.93R

$$

NCZ045>047-081-094-103-104-050400-
CENTRAL COAST

CITY           SKY/WX    TMP DP  RH WIND       PRES   REMARKS
FRISCO         CLOUDY    57  57 100 SW13      29.98S FOG
SWANQUARTER      N/A     57 N/A N/A S16G24    29.91S

$$

NCZ095-097-098-100-101-050400-
SOUTHERN COAST

CITY           SKY/WX    TMP DP  RH WIND       PRES   REMARKS
BEAUFORT       FOG       57  57 100 SW12      30.00R VSB 3/4
CEDAR ISLAND     N/A     64 N/A N/A S14G24    30.00S
JACKSONVILLE   NOT AVBL
PINEY ISLAND     N/A    N/A N/A N/A MISG      29.99R
WILMINGTON     CLEAR     66  62  87 SW17G25   30.00R


$$

NCZ011>013-027>030-043-044-078>080-089-090>093-098-050400-
COASTAL PLAIN

CITY           SKY/WX    TMP DP  RH WIND       PRES   REMARKS
AHOSKIE        NOT AVBL
CLINTON        NOT AVBL
ELIZABETHTOWN  PTCLDY    67  61  81 S9        29.97R
GOLDSBORO      CLEAR     66  66  99 S10G16    29.91R
GREENVILLE     NOT AVBL
HAVELOCK       NOT AVBL
KENANSVILLE    PTCLDY    65  60  81 S5        29.97R
KINSTON        NOT AVBL
NEW BERN       CLEAR     65  60  84 SW10      29.97R
RICHLANDS      PTCLDY    64  59  82 S13       29.97S
ROCKY MOUNT    PTCLDY    67  59  75 S9        29.90R
WASHINGTON     NOT AVBL
WHITEVILLE     NOT AVBL

$$

AMZ130-135-150-152-154-156-158-170-250-252-270-ANZ085-086-088-633-658-670-050400-
MARINE OBSERVATIONS

STATION/POSITION TIME  TEMP    WIND        PRES    WAVE   SWELL
                       AIR SEA DIR/SP/G            HT/PER HT/PER
                 (UTC) (F)     (DEG/KT/KT) (MB)    (FT/S) (FT/S)
CHESAPEAKE LIGHT 0200   52     170/ 14/ 15 1012.0
64 E VA BEACH    0250   57 52  210/ 23/ 27 1012.0    7/ 7
DUCK             0200   61 37  200/ 19/ 23 1011.2
2 E DUCK         0211      37                N/A     3/10
10 NE DUCK       0222      39                N/A     4/ 8
OREGON INLET     0200   50 49  200/ 16/ 19 1013.9
HATTERAS CG      0200   58 46  220/ 12/ 16 1015.3
CAPE LOOKOUT     0300   61     220/ 13/ 16 1015.8
BEAUFORT LAB     0200   56 46  210/  8/ 11 1014.5
27 SE WRIGHTSVLE NOT AVBL
5 SE WRIGHTSVLE  NOT AVBL
225 S CAPE HAT   0250   73 74  220/ 19/ 23 1021.6    6/10   3/10
41 SE CHARLESTON 0250   72 69  190/ 19/ 21 1016.1    6/ 7   3/ 9

$$



USA.gov is the U.S. government's official web portal to all federal, state and local government web resources and services.